Selawik, AK

5:14 PM AKDT on July 20, 2017 (GMT -0800)
Selawik

Weather History for PASK - May, 2013

Change the Weather History Date:

Thursday, May 23, 2013

  Actual Average Record
Temperature  
Mean Temperature 40 °F -  
Max Temperature 46 °F 43 °F 75 °F (2002)
Min Temperature 33 °F 28 °F 14 °F (2000)
Degree Days  
Heating Degree Days 26    
Moisture  
Dew Point 34 °F    
Average Humidity 83    
Maximum Humidity 100    
Minimum Humidity 65    
Precipitation  
Precipitation 0.00 in - - ()
Sea Level Pressure  
Sea Level Pressure 30.09 in    
Wind  
Wind Speed 3 mph (SSW)    
Max Wind Speed 12 mph    
Max Gust Speed -    
Visibility 10 miles    
Events      
Averages and records for this station are not official NWS values.
T = Trace of Precipitation, MM = Missing Value Source: NWS Daily Summary

Daily Weather History Graph

Daily Weather History Graph

Search for Another Location

Airport or City:

Trip Planner

Search our weather history database for the weather conditions in past years. The results will help you decide how hot, cold, wet, or windy it might be!

Date:

Astronomy

May. 23, 2013 Rise Set
Actual Time 4:14 AM AKDT 1:03 AM AKDT
Civil Twilight Sun does not set Sun does not set
Nautical Twilight Sun does not set Sun does not set
Astronomical Twilight Sun does not set Sun does not set
Moon 10:57 PM AKDT (5/23) 4:23 AM AKDT (5/23)
Length of Visible Light 24h 00m
Length of Day
20h 49m
Waxing Gibbous, 97% of the Moon is Illuminated
May 23
Waxing Gibbous
May 24
Full
May 31
Last Quarter
Jun 8
New
Jun 16
First Quarter

Hourly Weather History & Observations

Time (AKDT) Temp. Windchill Dew Point Humidity Pressure Visibility Wind Dir Wind Speed Gust Speed Precip Events Conditions
12:16 AM 41.0 °F - 33.8 °F 76% 30.01 in 10.0 mi Calm Calm - N/A   Overcast
12:36 AM 39.2 °F - 33.8 °F 81% 30.02 in 10.0 mi Calm Calm - N/A   Overcast
12:56 AM 37.4 °F 33.8 °F 30.2 °F 75% 30.03 in 10.0 mi West 4.6 mph - N/A   Overcast
1:16 AM 37.4 °F 34.9 °F 32.0 °F 81% 30.03 in 10.0 mi WSW 3.5 mph - N/A   Overcast
1:36 AM 37.4 °F - 32.0 °F 81% 30.03 in 10.0 mi Calm Calm - N/A   Overcast
1:56 AM 37.4 °F - 32.0 °F 81% 30.03 in 10.0 mi Calm Calm - N/A   Overcast
2:16 AM 35.6 °F - 33.8 °F 93% 30.03 in 10.0 mi Calm Calm - N/A   Overcast
2:36 AM 37.4 °F - 33.8 °F 87% 30.04 in 10.0 mi Calm Calm - N/A   Overcast
2:56 AM 35.6 °F - 32.0 °F 87% 30.03 in 10.0 mi Calm Calm - N/A   Overcast
3:16 AM 35.6 °F - 32.0 °F 87% 30.03 in 10.0 mi Calm Calm - N/A   Overcast
3:36 AM 35.6 °F 32.8 °F 33.8 °F 93% 30.04 in 10.0 mi SE 3.5 mph - N/A   Overcast
3:56 AM 35.6 °F 31.7 °F 33.8 °F 93% 30.04 in 10.0 mi SE 4.6 mph - N/A   Overcast
4:16 AM 35.6 °F 30.7 °F 33.8 °F 93% 30.05 in 10.0 mi South 5.8 mph - N/A   Overcast
4:36 AM 35.6 °F 31.7 °F 32.0 °F 87% 30.05 in 10.0 mi South 4.6 mph - N/A   Overcast
4:56 AM 35.6 °F 32.8 °F 33.8 °F 93% 30.05 in 10.0 mi South 3.5 mph - N/A   Overcast
5:16 AM 35.6 °F 32.8 °F 33.8 °F 93% 30.05 in 10.0 mi SSE 3.5 mph - N/A   Overcast
5:36 AM 35.6 °F 32.8 °F 33.8 °F 93% 30.05 in 10.0 mi South 3.5 mph - N/A   Overcast
5:56 AM 35.6 °F - 33.8 °F 93% 30.05 in 10.0 mi Calm Calm - N/A   Overcast
6:16 AM 33.8 °F - 30.2 °F 87% 30.05 in 10.0 mi Calm Calm - N/A   Overcast
6:36 AM 33.8 °F - 33.8 °F 100% 30.05 in 10.0 mi Calm Calm - N/A   Overcast
6:56 AM 35.6 °F - 33.8 °F 93% 30.06 in 10.0 mi Calm Calm - N/A   Overcast
7:16 AM 35.6 °F - 33.8 °F 93% 30.06 in 10.0 mi Calm Calm - N/A   Overcast
7:36 AM 35.6 °F - 33.8 °F 93% 30.06 in 10.0 mi Calm Calm - N/A   Overcast
7:56 AM 35.6 °F - 33.8 °F 93% 30.06 in 10.0 mi Calm Calm - N/A   Overcast
8:16 AM 37.4 °F - 35.6 °F 93% 30.07 in 10.0 mi Calm Calm - N/A   Overcast
8:36 AM 35.6 °F 30.7 °F 35.6 °F 100% 30.07 in 10.0 mi ENE 5.8 mph - N/A   Overcast
8:56 AM 35.6 °F 31.7 °F 33.8 °F 93% 30.07 in 10.0 mi East 4.6 mph - N/A   Overcast
9:16 AM 35.6 °F 31.7 °F 33.8 °F 93% 30.07 in 10.0 mi ENE 4.6 mph - N/A   Overcast
9:36 AM 35.6 °F 30.7 °F 33.8 °F 93% 30.08 in 10.0 mi ENE 5.8 mph - N/A   Overcast
9:56 AM 35.6 °F 30.7 °F 33.8 °F 93% 30.08 in 10.0 mi ENE 5.8 mph - N/A   Overcast
10:16 AM 37.4 °F 31.4 °F 35.6 °F 93% 30.08 in 10.0 mi ENE 8.1 mph - N/A   Overcast
10:36 AM 35.6 °F 29.2 °F 33.8 °F 93% 30.08 in 10.0 mi ENE 8.1 mph - N/A   Overcast
10:56 AM 37.4 °F 32.1 °F 35.6 °F 93% 30.08 in 10.0 mi ENE 6.9 mph - N/A   Overcast
11:16 AM 35.6 °F 31.7 °F 35.6 °F 100% 30.08 in 10.0 mi ENE 4.6 mph - N/A   Overcast
11:36 AM 37.4 °F 33.8 °F 33.8 °F 87% 30.08 in 10.0 mi ENE 4.6 mph - N/A   Overcast
11:56 AM 37.4 °F 33.8 °F 33.8 °F 87% 30.08 in 10.0 mi ENE 4.6 mph - N/A   Overcast
12:16 PM 37.4 °F 33.8 °F 35.6 °F 93% 30.08 in 10.0 mi ENE 4.6 mph - N/A   Overcast
12:36 PM 37.4 °F 32.1 °F 35.6 °F 93% 30.09 in 10.0 mi East 6.9 mph - N/A   Overcast
12:56 PM 39.2 °F 35.0 °F 35.6 °F 87% 30.09 in 10.0 mi ESE 5.8 mph - N/A   Overcast
1:16 PM 39.2 °F - 33.8 °F 81% 30.09 in 10.0 mi Calm Calm - N/A   Overcast
1:36 PM 39.2 °F - 35.6 °F 87% 30.09 in 10.0 mi Calm Calm - N/A   Overcast
1:56 PM 46.4 °F 42.9 °F 37.4 °F 71% 30.09 in 10.0 mi SSW 6.9 mph - N/A   Overcast
2:16 PM 44.6 °F 41.4 °F 37.4 °F 76% 30.09 in 10.0 mi SW 5.8 mph - N/A   Overcast
2:36 PM 44.6 °F 40.2 °F 35.6 °F 71% 30.09 in 10.0 mi WSW 8.1 mph - N/A   Overcast
2:56 PM 44.6 °F 40.7 °F 35.6 °F 71% 30.09 in 10.0 mi WSW 6.9 mph - N/A   Overcast
3:16 PM 44.6 °F 41.4 °F 35.6 °F 71% 30.10 in 10.0 mi SW 5.8 mph - N/A   Overcast
3:36 PM 44.6 °F 40.2 °F 35.6 °F 71% 30.10 in 10.0 mi SW 8.1 mph - N/A   Overcast
3:56 PM 42.8 °F 38.6 °F 35.6 °F 76% 30.10 in 10.0 mi WSW 6.9 mph - N/A   Overcast
4:16 PM 42.8 °F 38.6 °F 35.6 °F 76% 30.11 in 10.0 mi WSW 6.9 mph - N/A   Overcast
4:36 PM 42.8 °F 37.0 °F 35.6 °F 76% 30.11 in 10.0 mi SW 10.4 mph - N/A   Overcast
4:56 PM 41.0 °F 38.0 °F 33.8 °F 76% 30.12 in 10.0 mi SW 4.6 mph - N/A   Overcast
5:16 PM 42.8 °F 37.0 °F 35.6 °F 76% 30.12 in 10.0 mi SW 10.4 mph - N/A   Overcast
5:36 PM 42.8 °F 37.5 °F 33.8 °F 70% 30.12 in 10.0 mi SSW 9.2 mph - N/A   Overcast
5:56 PM 41.0 °F 35.8 °F 33.8 °F 76% 30.12 in 10.0 mi SW 8.1 mph - N/A   Overcast
6:16 PM 42.8 °F 37.5 °F 35.6 °F 76% 30.12 in 10.0 mi SSW 9.2 mph - N/A   Overcast
6:36 PM 42.8 °F - 33.8 °F 70% 30.13 in 10.0 mi Calm Calm - N/A   Overcast
6:56 PM 44.6 °F 41.4 °F 35.6 °F 71% 30.13 in 10.0 mi SSW 5.8 mph - N/A   Overcast
7:16 PM 44.6 °F 39.7 °F 35.6 °F 71% 30.13 in 10.0 mi SW 9.2 mph - N/A   Mostly Cloudy
7:36 PM 42.8 °F 37.5 °F 33.8 °F 70% 30.13 in 10.0 mi SW 9.2 mph - N/A   Partly Cloudy
7:56 PM 42.8 °F 38.6 °F 33.8 °F 70% 30.13 in 10.0 mi South 6.9 mph - N/A   Clear
8:16 PM 42.8 °F 39.3 °F 33.8 °F 70% 30.13 in 10.0 mi SW 5.8 mph - N/A   Clear
8:36 PM 42.8 °F 38.0 °F 33.8 °F 70% 30.14 in 10.0 mi SSW 8.1 mph - N/A   Clear
8:56 PM 41.0 °F 35.8 °F 30.2 °F 65% 30.14 in 10.0 mi WSW 8.1 mph - N/A   Clear
9:16 PM 39.2 °F 32.0 °F 30.2 °F 70% 30.14 in 10.0 mi SW 11.5 mph - N/A   Clear
9:36 PM 39.2 °F 33.0 °F 30.2 °F 70% 30.14 in 10.0 mi SW 9.2 mph - N/A   Clear
9:56 PM 39.2 °F 34.2 °F 30.2 °F 70% 30.15 in 10.0 mi SW 6.9 mph - N/A   Clear
10:16 PM 37.4 °F - 30.2 °F 75% 30.16 in 10.0 mi Calm Calm - N/A   Clear
10:36 PM 37.4 °F 31.4 °F 30.2 °F 75% 30.17 in 10.0 mi SSW 8.1 mph - N/A   Clear
10:56 PM 37.4 °F 32.1 °F 30.2 °F 75% 30.17 in 10.0 mi SW 6.9 mph - N/A   Clear
11:16 PM 37.4 °F 32.8 °F 30.2 °F 75% 30.18 in 10.0 mi SW 5.8 mph - N/A   Clear
11:36 PM 37.4 °F 32.1 °F 30.2 °F 75% 30.19 in 10.0 mi WSW 6.9 mph - N/A   Clear
11:56 PM 35.6 °F - 30.2 °F 81% 30.19 in 10.0 mi Calm Calm - N/A   Clear